Voltar ao catálogo

STARLINK-36669

AtivoComunicaçõesSSO
NORAD 68675·PAYLOAD·🇺🇸 United States

Lançado Apr 11, 2026 de Vandenberg Space Force Base

Loading…

Próximas Passagens (próximas 24 horas)

TLE

AtualizadoSource: CelesTrak SupGP

Época: Sep 14, 2026, 21:31 UTC

1 68675C 26077P   26257.89701389  .00012012  00000+0  37302-3 0  2571
2 68675  97.2847 127.8774 0001970  94.3660 304.0060 15.33418954    19

Acompanhe STARLINK-36669 em tempo real com AllMySat

Download on the App Store